Dewpoint
45 47 49 51 52 57 58 57 57 56 56 56 56 55 52 51 49 48 49 49 49 49 46 44 42 41 42 41 40 39 39 38 39 36 36 36 35 34 34 34 33 33 33
42 48 50 51 53 58 57 57 56 56 55 57 56 54 52 49 48 48 49 49 47 45 43 42 41 40 40 40 39 39 39 38 38 36 35 32 33 34 34 34 33 32 33
41 48 52 53 56 58 58 57 57 56 56 58 56 52 49 48 48 48 48 46 45 45 43 42 42 40 40 39 39 38 37 37 37 37 34 31 30 33 33 33 33 32 32
42 50 53 56 57 58 59 58 58 57 57 59 56 50 47 46 47 47 48 46 45 44 43 42 41 41 41 40 40 39 38 36 34 36 36 35 35 32 31 33 33 33 32
43 51 55 57 58 59 59 59 58 58 58 58 55 50 47 47 47 48 47 46 44 43 41 41 41 40 41 38 35 34 34 36 35 35 35 35 35 34 32 31 31 32 32
46 50 57 58 59 59 59 59 58 58 58 57 52 50 47 47 47 48 46 46 46 43 42 40 40 39 36 34 34 34 33 33 34 35 36 36 34 34 34 33 33 33 32
49 54 57 58 58 58 58 58 58 57 53 51 50 49 47 47 47 47 46 44 41 41 40 39 38 36 35 35 34 33 32 32 33 34 36 37 37 37 36 34 33 32 29
51 54 56 57 57 57 57 58 57 52 49 49 48 47 45 45 44 43 42 42 42 39 36 35 35 34 35 34 33 33 34 35 35 34 34 35 36 36 36 34 30 29 28
54 55 55 56 56 56 56 55 51 48 49 49 46 44 42 41 42 43 41 40 39 35 36 34 34 34 33 33 33 34 34 34 33 33 34 34 37 37 35 34 34 34 29
49 52 53 54 53 52 49 48 49 48 49 46 43 41 41 41 43 44 43 39 39 36 36 34 33 33 33 34 36 35 34 33 34 34 34 33 34 34 33 32 32 31 30
46 48 50 51 50 48 48 47 47 48 48 44 41 41 42 42 42 42 39 36 37 35 34 34 32 33 33 36 34 33 34 34 34 34 33 33 31 31 30 28 25 22 21
44 45 47 48 47 47 47 48 47 48 44 40 41 43 42 44 43 40 38 38 35 36 35 33 32 33 33 35 33 32 32 33 33 33 31 31 29 27 25 22 20 19 19
44 43 44 46 47 47 47 48 44 40 40 42 43 43 41 43 42 40 38 38 34 33 32 32 33 33 34 32 32 33 34 33 32 31 31 31 30 24 22 20 19 19 18
44 42 42 44 45 47 46 43 43 43 44 43 42 42 43 43 38 36 35 34 34 32 32 33 34 35 32 31 31 31 30 30 29 28 27 26 23 20 18 18 17 18 19
43 44 44 47 48 48 45 43 44 43 44 41 37 40 36 35 36 36 34 34 33 32 34 34 34 33 31 29 30 29 28 27 26 26 25 24 25 28 22 18 19 19 19
39 42 48 48 48 45 43 43 43 41 40 33 31 33 35 35 35 34 33 32 33 33 33 33 34 32 29 32 32 29 26 25 24 23 25 24 24 25 27 26 24 22 18
43 45 46 47 45 43 43 41 38 34 32 32 33 35 36 34 33 31 31 31 31 31 31 33 32 32 32 33 33 31 24 23 23 23 24 22 22 25 22 22 20 19 20
40 39 38 37 37 37 33 33 33 34 31 30 31 31 32 32 33 34 32 31 31 31 32 32 32 31 31 33 34 33 25 23 23 24 25 23 22 22 21 20 19 18 18
32 30 30 30 31 31 31 28 26 28 29 31 31 32 35 36 34 31 31 31 30 31 31 31 31 30 30 32 34 32 25 23 24 26 26 25 22 23 24 21 20 18 17
30 29 28 28 28 28 28 28 27 28 29 30 31 37 36 32 31 31 31 30 30 30 29 29 30 31 30 32 34 33 26 27 28 27 25 26 22 24 22 20 19 16 16
26 26 25 25 26 28 27 27 28 28 31 36 37 33 32 31 31 29 29 29 29 29 28 29 29 29 30 29 32 34 30 29 27 25 25 24 25 24 24 24 21 17 18
27 26 25 26 27 28 27 27 27 29 31 30 29 29 29 28 27 29 28 29 29 28 28 24 27 27 29 31 32 34 33 31 27 26 25 25 26 25 26 25 24 24 23
29 28 26 26 29 30 29 28 30 28 29 28 28 27 28 28 27 28 28 27 27 25 26 27 27 26 27 28 32 33 33 33 30 27 26 26 26 26 26 27 26 23 20
29 29 29 30 30 31 31 31 31 31 28 27 26 27 27 27 28 28 29 28 27 26 27 27 26 26 27 27 27 28 29 32 32 27 28 24 25 21 22 22 23 23 20
32 32 32 31 31 31 29 25 24 26 25 26 27 27 28 28 28 29 29 29 29 28 28 27 26 24 24 26 28 29 27 28 29 28 25 25 24 22 22 22 22 22 21
33 32 30 25 24 24 26 27 29 29 27 27 27 27 27 27 27 28 28 31 30 30 31 31 28 28 30 31 31 31 31 32 31 27 24 24 21 21 21 20 20 19 18
Lifted_Index
0 0 -1 -1 -2 -2 -2 -2 -3 -3 -2 -2 -1 0 1 1 1 2 4 6 6 7 7 7 8 8 8 9 10 11 11 11 11 12 12 11 11 11 11 11 12 12 12
0 0 -1 -1 -2 -2 -2 -2 -3 -3 -2 -1 0 1 1 1 2 3 5 6 7 7 7 7 7 8 8 9 10 11 11 11 11 12 12 11 11 11 11 11 12 12 12
0 -0 -1 -2 -2 -2 -3 -3 -3 -3 -2 -1 1 1 1 2 2 4 5 6 6 6 7 7 7 7 8 9 9 10 10 10 11 11 11 11 11 11 11 12 12 12 11
0 -1 -1 -2 -2 -2 -3 -3 -3 -2 -2 -0 1 1 2 3 3 4 5 5 6 6 6 6 7 8 8 8 9 9 9 10 11 12 11 11 11 11 12 12 12 12 11
0 -1 -2 -2 -2 -2 -2 -3 -3 -2 -1 -1 -0 1 2 3 4 4 5 5 5 5 6 7 7 8 8 9 8 8 9 10 12 12 12 11 11 11 11 12 12 12 12
-0 -1 -2 -2 -3 -2 -3 -3 -2 -2 -1 -1 -1 1 3 4 4 4 4 4 4 5 6 7 7 8 9 9 9 9 10 12 13 13 12 11 11 11 11 11 12 12 12
-1 -1 -2 -3 -3 -3 -3 -3 -2 -2 -1 -1 -1 1 3 4 4 4 4 4 5 6 7 7 8 8 9 9 10 11 12 13 13 12 12 11 11 11 11 11 11 11 12
-1 -2 -2 -3 -3 -3 -3 -2 -2 -2 -1 -0 1 2 3 4 4 5 5 5 6 7 7 7 8 8 9 10 11 12 13 13 12 12 11 11 11 11 11 11 11 11 11
-2 -3 -3 -3 -3 -3 -2 -2 -2 -1 -1 1 2 3 3 3 4 4 5 6 6 7 7 7 8 9 9 11 12 12 12 12 12 11 11 11 11 11 11 10 10 11 11
-3 -3 -3 -3 -3 -2 -2 -2 -1 -1 1 2 2 2 2 2 3 3 4 5 6 7 7 8 9 10 11 11 12 12 12 12 12 12 11 11 11 11 10 10 10 10 10
-3 -3 -3 -3 -3 -2 -1 -1 0 1 1 2 2 1 1 1 2 3 4 5 6 7 8 9 10 10 11 12 12 12 12 12 12 12 12 11 11 10 10 10 10 10 9
-2 -2 -2 -2 -2 -1 -0 0 1 1 1 1 1 1 1 1 2 3 5 6 8 9 10 10 10 11 12 12 12 12 12 12 12 12 12 11 10 10 10 10 9 9 9
-2 -2 -2 -1 -1 -0 1 1 1 1 1 0 0 1 1 2 3 4 6 8 9 10 10 10 11 11 12 12 12 12 12 11 11 11 11 11 10 10 10 9 9 8 8
-2 -2 -1 -1 -0 1 1 1 1 1 1 1 1 1 2 3 5 6 8 9 10 10 11 11 11 11 12 12 11 11 11 11 11 11 10 10 10 9 9 9 8 8 8
-1 -1 -1 -1 -0 0 1 1 0 0 0 0 1 2 3 5 7 8 9 10 10 11 11 11 11 11 11 11 11 10 10 10 10 10 9 9 9 9 8 8 8 8 8
0 -0 -1 -1 -1 -0 -0 -0 -0 0 1 1 2 4 5 7 8 9 10 10 10 10 11 11 11 11 11 10 10 10 10 9 9 9 9 8 8 8 8 8 8 7 7
1 0 -0 -0 -0 -0 -0 0 0 1 2 3 4 6 8 8 9 9 9 10 10 11 11 11 10 10 10 9 9 9 9 9 8 8 8 8 8 8 8 7 7 7 7
2 1 1 0 0 1 1 1 2 3 4 5 6 8 9 9 9 9 10 10 11 11 10 10 10 9 9 8 8 8 8 8 8 7 7 7 7 8 7 7 7 7 8
3 2 2 2 2 2 2 3 4 5 6 7 8 9 9 9 10 10 11 11 11 10 10 9 9 8 8 7 7 7 8 8 8 7 7 7 7 8 7 7 7 7 8
4 4 4 3 3 3 4 4 5 6 7 8 9 9 10 10 11 12 12 11 11 10 9 9 8 7 7 6 7 7 8 8 7 7 7 7 8 8 7 7 7 7 8
4 4 4 4 5 5 6 6 7 7 8 9 9 10 11 12 12 12 12 11 11 10 9 8 7 6 6 6 7 7 8 7 7 7 7 7 7 7 7 7 7 8 8
5 5 5 5 7 8 8 8 8 9 9 10 10 11 12 12 13 12 12 11 10 9 8 7 6 6 6 6 7 7 7 7 6 6 6 7 7 7 7 7 7 8 8
6 6 7 7 8 9 9 9 9 10 11 11 12 13 13 13 13 12 12 10 9 8 7 6 6 6 6 6 7 7 7 6 6 6 6 6 6 6 7 7 7 7 8
7 8 8 8 9 10 11 11 12 12 13 13 13 13 13 13 12 11 10 9 8 7 6 6 6 6 6 6 6 7 6 6 6 6 6 6 6 6 7 7 7 7 7
8 8 8 9 10 11 13 13 13 14 13 13 13 12 12 12 11 10 9 7 6 6 6 6 6 6 6 6 6 6 6 5 5 6 6 6 6 6 7 7 7 7 7
9 9 9 10 11 13 14 14 14 13 13 13 12 12 12 11 10 9 8 6 6 5 5 6 6 6 6 6 6 6 5 5 5 6 6 6 6 6 7 7 7 7 7